Hourly Data Report for June 22, 2003

All times are specified in Local Standard Time (LST). Add 1 hour to adjust for Daylight Saving Time where and when it is observed.

TORONTO CITY
ONTARIO

43°40'00.000" N
79°24'00.000" W
112.50 m
6158355
71508
XTO

Download Data

Hourly Data (June 2003)
Hourly Data Report for June 22, 2003
TIME Temp Definition
°C
Dew Point Definition
°C
Rel Hum Definition
%
Wind Dir Definition
10's deg

Wind Spd Definition
km/h
Visibility Definition
km
Stn Press Definition
kPa
Hmdx Definition


Wind Chill Definition


Weather Definition


00:00 16.7 11.3 70 LegendMM LegendMM LegendMM 99.85     LegendNANA
01:00 16.1 11.5 74 LegendMM LegendMM LegendMM 99.84     LegendNANA
02:00
03:00 17.1 9.2 60 LegendMM LegendMM LegendMM 99.79     LegendNANA
04:00 19.2 7.6 47 LegendMM LegendMM LegendMM 99.76     LegendNANA
05:00 19.7 7.5 45 LegendMM LegendMM LegendMM 99.80     LegendNANA
06:00 19.2 8.1 49 LegendMM LegendMM LegendMM 99.83     LegendNANA
07:00 20.6 10.0 51 LegendMM LegendMM LegendMM 99.85     LegendNANA
08:00 22.4 10.8 48 LegendMM LegendMM LegendMM 99.89     LegendNANA
09:00 23.5 11.6 47 LegendMM LegendMM LegendMM 99.85 26   LegendNANA
10:00 25.2 12.2 44 LegendMM LegendMM LegendMM 99.86 28   LegendNANA
11:00
12:00 28.3 13.2 39 LegendMM LegendMM LegendMM 99.76 31   LegendNANA
13:00 28.7 12.9 38 LegendMM LegendMM LegendMM 99.73 31   LegendNANA
14:00 29.3 11.9 34 LegendMM LegendMM LegendMM 99.69 32   LegendNANA
15:00 29.1 8.9 28 LegendMM LegendMM LegendMM 99.68 30   LegendNANA
16:00
17:00
18:00 28.7 8.2 28 LegendMM LegendMM LegendMM 99.63 29   LegendNANA
19:00 27.6 8.4 30 LegendMM LegendMM LegendMM 99.64 28   LegendNANA
20:00 25.9 12.5 43 LegendMM LegendMM LegendMM 99.69 28   LegendNANA
21:00 23.9 11.2 45 LegendMM LegendMM LegendMM 99.76 26   LegendNANA
22:00 22.9 8.5 40 LegendMM LegendMM LegendMM 99.78     LegendNANA
23:00 21.0 8.4 44 LegendMM LegendMM LegendMM 99.79     LegendNANA

Notes on Data Quality.

Legend

  • E = Estimated
  • M = Missing
  • NA = Not Available
Date modified: